BNZ569 YBSU-YMAV

Flight info

Callsign BNZ569
Flight time N/A
Altitude 38000
Route MOOLO DCT MUDDL Q35 DORSU
Aircraft B38M/M-SDE1FGHILORVWXY/HB1

Departure

Time 2026-05-06 01:11
Airport Sunshine Coast Airport (YBSU)

Arrival

Time N/A
Airport Melbourne Avalon International Airport (YMAV)
Time Latitude Longitude Altitude Speed Heading
2026-05-06 00:27 -26.60596 153.08939 27 ft 0 kts 284°
2026-05-06 00:58 -26.60598 153.08946 27 ft 4 kts 284°
2026-05-06 00:58 -26.60606 153.08975 27 ft 4 kts 290°
2026-05-06 00:59 -26.60617 153.09003 27 ft 4 kts 299°
2026-05-06 00:59 -26.60632 153.09027 27 ft 4 kts 318°
2026-05-06 00:59 -26.60637 153.09031 28 ft 1 kts 321°
2026-05-06 01:02 -26.60632 153.09028 28 ft 2 kts 335°
2026-05-06 01:02 -26.60617 153.09033 28 ft 3 kts 25°
2026-05-06 01:03 -26.60590 153.09048 28 ft 6 kts 25°
2026-05-06 01:03 -26.60541 153.09065 28 ft 9 kts 14°
2026-05-06 01:03 -26.60470 153.09064 26 ft 12 kts 325°
2026-05-06 01:03 -26.60399 153.09001 31 ft 14 kts 322°
2026-05-06 01:04 -26.60310 153.08926 26 ft 18 kts 323°
2026-05-06 01:04 -26.60205 153.08835 28 ft 20 kts 322°
2026-05-06 01:04 -26.60094 153.08740 28 ft 21 kts 322°
2026-05-06 01:04 -26.59972 153.08635 26 ft 23 kts 322°
2026-05-06 01:05 -26.59845 153.08526 27 ft 24 kts 322°
2026-05-06 01:05 -26.59707 153.08408 23 ft 24 kts 322°
2026-05-06 01:05 -26.59570 153.08289 21 ft 27 kts 322°
2026-05-06 01:05 -26.59460 153.08195 21 ft 11 kts 322°
2026-05-06 01:06 -26.59404 153.08194 22 ft 8 kts 46°
2026-05-06 01:06 -26.59364 153.08251 21 ft 11 kts 52°
2026-05-06 01:06 -26.59328 153.08292 20 ft 7 kts 16°
2026-05-06 01:06 -26.59280 153.08274 20 ft 9 kts 322°
2026-05-06 01:07 -26.59225 153.08226 20 ft 12 kts 321°
2026-05-06 01:07 -26.59154 153.08162 19 ft 14 kts 324°
2026-05-06 01:07 -26.59070 153.08094 21 ft 15 kts 321°
2026-05-06 01:07 -26.58987 153.08022 23 ft 16 kts 323°
2026-05-06 01:08 -26.58891 153.07940 25 ft 18 kts 323°
2026-05-06 01:08 -26.58789 153.07852 26 ft 19 kts 322°
2026-05-06 01:08 -26.58671 153.07751 21 ft 23 kts 322°
2026-05-06 01:08 -26.58540 153.07637 19 ft 25 kts 322°
2026-05-06 01:09 -26.58447 153.07521 15 ft 17 kts 292°
2026-05-06 01:09 -26.58397 153.07430 14 ft 11 kts 320°
2026-05-06 01:09 -26.58348 153.07428 17 ft 7 kts 41°
2026-05-06 01:09 -26.58343 153.07469 16 ft 6 kts 130°
2026-05-06 01:10 -26.58393 153.07512 15 ft 16 kts 142°
2026-05-06 01:10 -26.58669 153.07748 19 ft 90 kts 142°
2026-05-06 01:10 -26.59361 153.08342 26 ft 158 kts 143°
2026-05-06 01:10 -26.60294 153.09139 550 ft 176 kts 142°
2026-05-06 01:11 -26.61231 153.09949 1644 ft 167 kts 142°
2026-05-06 01:11 -26.62196 153.10783 2379 ft 185 kts 142°
2026-05-06 01:11 -26.63282 153.11713 3003 ft 207 kts 142°
2026-05-06 01:11 -26.64464 153.12791 3559 ft 234 kts 134°
2026-05-06 01:12 -26.65586 153.14219 4325 ft 251 kts 130°
2026-05-06 01:12 -26.66761 153.15757 5183 ft 268 kts 130°
2026-05-06 01:12 -26.67567 153.16807 5910 ft 268 kts 130°
2026-05-06 01:12 -26.69221 153.18955 7322 ft 277 kts 130°
2026-05-06 01:13 -26.70058 153.20041 7987 ft 280 kts 130°
2026-05-06 01:13 -26.71343 153.21706 8960 ft 286 kts 130°
2026-05-06 01:13 -26.72655 153.23405 9922 ft 291 kts 130°
2026-05-06 01:13 -26.74002 153.25150 10699 ft 304 kts 130°
2026-05-06 01:14 -26.76943 153.28963 11720 ft 340 kts 130°
2026-05-06 01:14 -26.78518 153.31006 12342 ft 352 kts 130°
2026-05-06 01:14 -26.80125 153.33091 13156 ft 356 kts 130°
2026-05-06 01:15 -26.81986 153.34949 13821 ft 363 kts 149°
2026-05-06 01:15 -26.84337 153.35965 14567 ft 367 kts 170°
2026-05-06 01:15 -26.86893 153.36096 15261 ft 370 kts 183°
2026-05-06 01:15 -26.89487 153.36033 15944 ft 375 kts 183°
2026-05-06 01:16 -26.92116 153.35968 16611 ft 380 kts 183°
2026-05-06 01:16 -26.94769 153.35894 17265 ft 385 kts 183°
2026-05-06 01:16 -26.97459 153.35816 17898 ft 389 kts 184°
2026-05-06 01:16 -27.00182 153.35736 18508 ft 393 kts 184°
2026-05-06 01:17 -27.02926 153.35655 19115 ft 396 kts 184°
2026-05-06 01:17 -27.05693 153.35573 19712 ft 400 kts 184°
2026-05-06 01:17 -27.08488 153.35490 20302 ft 404 kts 184°
2026-05-06 01:17 -27.11311 153.35406 20875 ft 407 kts 184°
2026-05-06 01:18 -27.14150 153.35322 21426 ft 410 kts 184°
2026-05-06 01:18 -27.17014 153.35236 21966 ft 413 kts 185°
2026-05-06 01:18 -27.19901 153.35151 22489 ft 416 kts 185°
2026-05-06 01:18 -27.22812 153.35064 22994 ft 419 kts 185°
2026-05-06 01:19 -27.25738 153.34977 23492 ft 423 kts 185°
2026-05-06 01:19 -27.28688 153.34889 23982 ft 426 kts 185°
2026-05-06 01:19 -27.31658 153.34801 24453 ft 429 kts 185°
2026-05-06 01:19 -27.34649 153.34688 24911 ft 430 kts 189°
2026-05-06 01:20 -27.37532 153.33936 25353 ft 424 kts 206°
2026-05-06 01:20 -27.40139 153.32426 25746 ft 423 kts 213°
2026-05-06 01:20 -27.42714 153.30777 26122 ft 427 kts 214°
2026-05-06 01:20 -27.45287 153.29089 26564 ft 429 kts 214°
2026-05-06 01:21 -27.47862 153.27374 26968 ft 432 kts 214°
2026-05-06 01:21 -27.50445 153.25638 27366 ft 434 kts 215°
2026-05-06 01:21 -27.53043 153.23886 27759 ft 436 kts 215°
2026-05-06 01:21 -27.55650 153.22123 28151 ft 438 kts 215°
2026-05-06 01:22 -27.58273 153.20349 28506 ft 440 kts 215°
2026-05-06 01:22 -27.60904 153.18568 28869 ft 443 kts 215°
2026-05-06 01:22 -27.63555 153.16772 29224 ft 445 kts 215°
2026-05-06 01:22 -27.66215 153.14969 29564 ft 447 kts 215°
2026-05-06 01:23 -27.68886 153.13158 29922 ft 449 kts 215°
2026-05-06 01:23 -27.71577 153.11332 30249 ft 452 kts 215°
2026-05-06 01:23 -27.74275 153.09500 30582 ft 454 kts 215°
2026-05-06 01:23 -27.76987 153.07658 30904 ft 456 kts 215°
2026-05-06 01:24 -27.79712 153.05806 31226 ft 458 kts 215°
2026-05-06 01:24 -27.82380 153.03861 31530 ft 456 kts 220°
2026-05-06 01:24 -27.84955 153.01751 31853 ft 458 kts 220°
2026-05-06 01:24 -27.87550 152.99656 32259 ft 457 kts 219°
2026-05-06 01:25 -27.90137 152.97583 32688 ft 456 kts 219°
2026-05-06 01:25 -27.92727 152.95514 33129 ft 454 kts 219°
2026-05-06 01:25 -27.95268 152.93485 33540 ft 453 kts 219°
2026-05-06 01:25 -27.97868 152.91406 33958 ft 451 kts 219°
2026-05-06 01:26 -28.00389 152.89392 34350 ft 450 kts 220°
2026-05-06 01:26 -28.02977 152.87322 34743 ft 448 kts 220°
2026-05-06 01:26 -28.05432 152.85357 35080 ft 447 kts 220°
2026-05-06 01:26 -28.07863 152.83410 35430 ft 446 kts 220°
2026-05-06 01:27 -28.10397 152.81380 35745 ft 446 kts 220°
2026-05-06 01:27 -28.12921 152.79357 36064 ft 445 kts 220°
2026-05-06 01:27 -28.15445 152.77332 36351 ft 444 kts 220°
2026-05-06 01:27 -28.17964 152.75310 36637 ft 443 kts 220°
2026-05-06 01:28 -28.20475 152.73293 36920 ft 443 kts 220°
2026-05-06 01:28 -28.22979 152.71282 37221 ft 441 kts 220°
2026-05-06 01:28 -28.25475 152.69274 37496 ft 440 kts 221°
2026-05-06 01:28 -28.27966 152.67270 37771 ft 439 kts 221°
2026-05-06 01:29 -28.30451 152.65270 38048 ft 437 kts 221°
2026-05-06 01:29 -28.32931 152.63272 38147 ft 438 kts 221°
2026-05-06 01:29 -28.37854 152.59304 38124 ft 431 kts 221°
2026-05-06 01:30 -28.42752 152.55351 38126 ft 432 kts 221°
2026-05-06 01:30 -28.47643 152.51398 38127 ft 432 kts 221°
2026-05-06 01:31 -28.52538 152.47438 38129 ft 432 kts 221°
2026-05-06 01:31 -28.57427 152.43478 38127 ft 432 kts 221°
2026-05-06 01:32 -28.62316 152.39515 38128 ft 432 kts 221°
2026-05-06 01:32 -28.67205 152.35545 38130 ft 432 kts 221°
2026-05-06 01:33 -28.72096 152.31570 38147 ft 431 kts 221°
2026-05-06 01:33 -28.76983 152.27594 38152 ft 431 kts 221°
2026-05-06 01:34 -28.81867 152.23615 38136 ft 432 kts 221°
2026-05-06 01:34 -28.86754 152.19629 38133 ft 432 kts 221°
2026-05-06 01:35 -28.91640 152.15639 38133 ft 432 kts 221°
2026-05-06 01:35 -28.96525 152.11645 38134 ft 432 kts 221°
2026-05-06 01:36 -29.01412 152.07644 38138 ft 432 kts 221°
2026-05-06 01:36 -29.06266 152.03666 38137 ft 432 kts 221°
2026-05-06 01:37 -29.11155 151.99656 38131 ft 432 kts 221°
2026-05-06 01:37 -29.16041 151.95642 38150 ft 433 kts 221°
2026-05-06 01:38 -29.20961 151.91595 38144 ft 433 kts 221°
2026-05-06 01:38 -29.25823 151.87592 38159 ft 433 kts 221°
2026-05-06 01:39 -29.30710 151.83563 38148 ft 433 kts 221°
2026-05-06 01:39 -29.35635 151.79498 38154 ft 433 kts 221°
2026-05-06 01:40 -29.40492 151.75485 38153 ft 433 kts 221°
2026-05-06 01:40 -29.45380 151.71442 38152 ft 433 kts 221°
2026-05-06 01:41 -29.50266 151.67395 38151 ft 433 kts 221°
2026-05-06 01:41 -29.55466 151.63799 38167 ft 438 kts 215°
2026-05-06 01:42 -29.60655 151.60421 38161 ft 437 kts 215°
2026-05-06 01:42 -29.65950 151.56982 38158 ft 437 kts 215°
2026-05-06 01:43 -29.71254 151.53534 38157 ft 438 kts 215°
2026-05-06 01:43 -29.76555 151.50084 38149 ft 438 kts 215°
2026-05-06 01:44 -29.81858 151.46629 38153 ft 438 kts 215°
2026-05-06 01:44 -29.87157 151.43171 38156 ft 438 kts 215°
2026-05-06 01:45 -29.92463 151.39705 38142 ft 438 kts 215°
2026-05-06 01:45 -29.97764 151.36238 38152 ft 438 kts 215°
2026-05-06 01:46 -30.03058 151.32772 38146 ft 438 kts 215°
2026-05-06 01:46 -30.08365 151.29292 38154 ft 439 kts 215°
2026-05-06 01:47 -30.13680 151.25803 38159 ft 439 kts 215°
2026-05-06 01:47 -30.18986 151.22315 38156 ft 439 kts 214°
2026-05-06 01:48 -30.24301 151.18817 38159 ft 440 kts 215°
2026-05-06 01:48 -30.29617 151.15314 38158 ft 440 kts 215°
2026-05-06 01:49 -30.34935 151.11805 38161 ft 440 kts 215°
2026-05-06 01:49 -30.40252 151.08293 38152 ft 439 kts 215°
2026-05-06 01:50 -30.45569 151.04775 38152 ft 441 kts 215°
2026-05-06 01:50 -30.50893 151.01250 38157 ft 441 kts 215°
2026-05-06 01:51 -30.56217 150.97718 38158 ft 441 kts 215°
2026-05-06 01:51 -30.61458 150.94239 38156 ft 441 kts 214°
2026-05-06 01:52 -30.66780 150.90701 38158 ft 442 kts 215°
2026-05-06 01:52 -30.71932 150.87271 38161 ft 442 kts 215°
2026-05-06 01:53 -30.77283 150.83704 38158 ft 441 kts 215°
2026-05-06 01:53 -30.82574 150.80174 38156 ft 442 kts 215°
2026-05-06 01:54 -30.87903 150.76613 38146 ft 442 kts 215°
2026-05-06 01:54 -30.93150 150.73102 38156 ft 443 kts 214°
2026-05-06 01:55 -30.98486 150.69528 38159 ft 443 kts 214°
2026-05-06 01:55 -31.03827 150.65946 38161 ft 443 kts 214°
2026-05-06 01:56 -31.08733 150.61779 38175 ft 434 kts 226°
2026-05-06 01:56 -31.13281 150.57103 38163 ft 436 kts 226°
2026-05-06 01:57 -31.17811 150.52399 38158 ft 436 kts 226°
2026-05-06 01:57 -31.22223 150.47802 38157 ft 436 kts 226°
2026-05-06 01:58 -31.26753 150.43075 38158 ft 437 kts 226°
2026-05-06 01:58 -31.31292 150.38332 38149 ft 437 kts 226°
2026-05-06 01:59 -31.35827 150.33588 38156 ft 438 kts 226°
2026-05-06 01:59 -31.40363 150.28835 38156 ft 438 kts 226°
2026-05-06 02:00 -31.44822 150.24157 38153 ft 438 kts 226°
2026-05-06 02:00 -31.49280 150.19474 38154 ft 438 kts 226°
2026-05-06 02:01 -31.53819 150.14699 38159 ft 439 kts 226°
2026-05-06 02:01 -31.58367 150.09908 38164 ft 439 kts 226°
2026-05-06 02:02 -31.62911 150.05115 38169 ft 440 kts 226°
2026-05-06 02:02 -31.67456 150.00314 38162 ft 439 kts 226°
2026-05-06 02:03 -31.71957 149.95555 38163 ft 440 kts 226°
2026-05-06 02:03 -31.75630 149.91665 38171 ft 440 kts 226°
2026-05-06 02:04 -31.80936 149.86038 38165 ft 440 kts 226°
2026-05-06 02:04 -31.84568 149.82069 38156 ft 437 kts 230°
2026-05-06 02:05 -31.88689 149.77023 38163 ft 438 kts 230°
2026-05-06 02:05 -31.92934 149.71896 38167 ft 438 kts 230°
2026-05-06 02:06 -31.97186 149.66766 38168 ft 437 kts 230°
2026-05-06 02:06 -32.01437 149.61630 38172 ft 438 kts 230°
2026-05-06 02:07 -32.05685 149.56490 38174 ft 438 kts 230°
2026-05-06 02:07 -32.09937 149.51339 38175 ft 438 kts 229°
2026-05-06 02:08 -32.14192 149.46177 38175 ft 438 kts 229°
2026-05-06 02:08 -32.18445 149.41010 38174 ft 438 kts 229°
2026-05-06 02:09 -32.22688 149.35848 38175 ft 439 kts 229°
2026-05-06 02:09 -32.26936 149.30671 38180 ft 439 kts 229°
2026-05-06 02:10 -32.31182 149.25490 38182 ft 438 kts 229°
2026-05-06 02:10 -32.35395 149.20344 38180 ft 439 kts 229°
2026-05-06 02:11 -32.39660 149.15111 38184 ft 439 kts 230°
2026-05-06 02:11 -32.43898 149.09903 38181 ft 439 kts 230°
2026-05-06 02:12 -32.48101 149.04730 38185 ft 439 kts 229°
2026-05-06 02:12 -32.52333 148.99513 38184 ft 439 kts 229°
2026-05-06 02:13 -32.56568 148.94287 38183 ft 439 kts 229°
2026-05-06 02:13 -32.60795 148.89061 38186 ft 439 kts 229°
2026-05-06 02:14 -32.65019 148.83832 38179 ft 439 kts 230°
2026-05-06 02:14 -32.69249 148.78587 38172 ft 439 kts 229°
2026-05-06 02:15 -32.73470 148.73347 38161 ft 439 kts 229°
2026-05-06 02:15 -32.77693 148.68096 38151 ft 440 kts 229°
2026-05-06 02:16 -32.81917 148.62837 38158 ft 440 kts 229°
2026-05-06 02:16 -32.86141 148.57570 38158 ft 440 kts 229°
2026-05-06 02:17 -32.90357 148.52304 38153 ft 440 kts 229°
2026-05-06 02:17 -32.94577 148.47026 38160 ft 440 kts 229°
2026-05-06 02:18 -32.98793 148.41746 38166 ft 440 kts 229°
2026-05-06 02:18 -33.03010 148.36455 38160 ft 440 kts 229°
2026-05-06 02:19 -33.07226 148.31159 38168 ft 441 kts 229°
2026-05-06 02:19 -33.11446 148.25852 38174 ft 441 kts 229°
2026-05-06 02:20 -33.18484 148.18805 38170 ft 444 kts 221°
2026-05-06 02:21 -33.23372 148.14287 38174 ft 445 kts 220°
2026-05-06 02:21 -33.28265 148.09767 38175 ft 445 kts 220°
2026-05-06 02:22 -33.33157 148.05240 38183 ft 445 kts 220°
2026-05-06 02:22 -33.38047 148.00708 38185 ft 445 kts 220°
2026-05-06 02:23 -33.42940 147.96169 38184 ft 445 kts 220°
2026-05-06 02:23 -33.47830 147.91623 38183 ft 445 kts 220°
2026-05-06 02:24 -33.52718 147.87075 38189 ft 445 kts 220°
2026-05-06 02:24 -33.57601 147.82523 38193 ft 445 kts 220°
2026-05-06 02:25 -33.62488 147.77961 38192 ft 445 kts 220°
2026-05-06 02:25 -33.67373 147.73395 38195 ft 445 kts 220°
2026-05-06 02:26 -33.72254 147.68825 38201 ft 445 kts 220°
2026-05-06 02:26 -33.77136 147.64249 38203 ft 445 kts 220°
2026-05-06 02:27 -33.82015 147.59666 38202 ft 445 kts 220°
2026-05-06 02:27 -33.86900 147.55073 38199 ft 445 kts 220°
2026-05-06 02:28 -33.91776 147.50481 38211 ft 445 kts 220°
2026-05-06 02:28 -33.96653 147.45880 38212 ft 445 kts 220°
2026-05-06 02:29 -34.01523 147.41279 38211 ft 445 kts 220°
2026-05-06 02:29 -34.06394 147.36672 38218 ft 445 kts 220°
2026-05-06 02:30 -34.11262 147.32060 38222 ft 445 kts 220°
2026-05-06 02:30 -34.16126 147.27444 38218 ft 445 kts 220°
2026-05-06 02:31 -34.20984 147.22827 38220 ft 444 kts 220°
2026-05-06 02:31 -34.25837 147.18209 38227 ft 444 kts 220°
2026-05-06 02:32 -34.30686 147.13587 38232 ft 444 kts 220°
2026-05-06 02:32 -34.35529 147.08963 38231 ft 443 kts 220°
2026-05-06 02:33 -34.40370 147.04335 38231 ft 443 kts 220°
2026-05-06 02:33 -34.41973 147.02801 38229 ft 443 kts 220°
2026-05-06 02:34 -34.50041 146.95067 38223 ft 443 kts 220°
2026-05-06 02:34 -34.54873 146.90426 38229 ft 443 kts 220°
2026-05-06 02:35 -34.59671 146.85812 38234 ft 443 kts 220°
2026-05-06 02:35 -34.64525 146.81136 38225 ft 443 kts 221°
2026-05-06 02:36 -34.69313 146.76516 38232 ft 442 kts 221°
2026-05-06 02:36 -34.74129 146.71862 38228 ft 442 kts 221°
2026-05-06 02:37 -34.78943 146.67203 38231 ft 442 kts 221°
2026-05-06 02:37 -34.83753 146.62539 38227 ft 442 kts 221°
2026-05-06 02:38 -34.88565 146.57869 38228 ft 442 kts 221°
2026-05-06 02:38 -34.93368 146.53199 38234 ft 442 kts 221°
2026-05-06 02:39 -34.98172 146.48521 38232 ft 442 kts 221°
2026-05-06 02:39 -35.02974 146.43837 38234 ft 442 kts 221°
2026-05-06 02:40 -35.07771 146.39152 38232 ft 441 kts 221°
2026-05-06 02:40 -35.12558 146.34468 38230 ft 441 kts 221°